This is the latest recevied weather packets stored in our database for station/object DK7LH-6. If no packets are shown the sender has not sent any weather packets the latest 1 day(s).
| Time | Temp. | Humidity | Pressure | Rain* | Wind** | Luminosity | Snow |
|---|---|---|---|---|---|---|---|
| 1778012145 | 11.67° C | 88% | 1008.8 hPa | 0 mm | 1.79 m/s, 31° | 0 W/m² | - |
| 1778011277 | 11.67° C | 89% | 1008.8 hPa | 0 mm | 1.34 m/s, 15° | 0 W/m² | - |
| 1778010347 | 11.67° C | 89% | 1008.8 hPa | 0 mm | 1.79 m/s, 5° | 0 W/m² | - |
| 1778009416 | 11.67° C | 88% | 1008.5 hPa | 0 mm | 2.24 m/s, 25° | 0 W/m² | - |
| 1778008548 | 11.67° C | 89% | 1008.5 hPa | 0 mm | 2.24 m/s, 9° | 0 W/m² | - |
| 1778007618 | 11.67° C | 88% | 1008.5 hPa | 0 mm | 2.24 m/s, 9° | 0 W/m² | - |
| 1778006750 | 11.67° C | 87% | 1008.6 hPa | 0 mm | 2.24 m/s, 16° | 0 W/m² | - |
| 1778005820 | 11.67° C | 87% | 1008.5 hPa | 0 mm | 1.79 m/s, 26° | 2 W/m² | - |
| 1778004952 | 11.67° C | 87% | 1008.6 hPa | 0 mm | 2.24 m/s, 2° | 7 W/m² | - |
| 1778004022 | 11.67° C | 88% | 1008.6 hPa | 0 mm | 2.68 m/s, 15° | 12 W/m² | - |
| 1778003154 | 11.67° C | 88% | 1008.7 hPa | 0 mm | 2.68 m/s, 355° | 13 W/m² | - |
| 1778002224 | 11.67° C | 88% | 1008.7 hPa | 0 mm | 2.68 m/s, 15° | 20 W/m² | - |
| 1778001356 | 11.67° C | 87% | 1008.8 hPa | 0 mm | 3.13 m/s, 4° | 30 W/m² | - |
| 1778000426 | 11.67° C | 87% | 1008.9 hPa | 0 mm | 3.13 m/s, 5° | 41 W/m² | - |
| 1777999558 | 11.67° C | 87% | 1008.8 hPa | 0 mm | 1.79 m/s, 2° | 31 W/m² | - |
| 1777998628 | 11.67° C | 86% | 1008.9 hPa | 0 mm | 2.24 m/s, 347° | 51 W/m² | - |
| 1777997760 | 11.67° C | 86% | 1008.9 hPa | 0 mm | 4.02 m/s, 5° | 42 W/m² | - |
| 1777996830 | 11.67° C | 85% | 1009 hPa | 0 mm | 2.68 m/s, 2° | 52 W/m² | - |
| 1777995962 | 12.22° C | 83% | 1009 hPa | 0 mm | 2.24 m/s, 7° | 50 W/m² | - |
| 1777995032 | 12.22° C | 81% | 1009.3 hPa | 0 mm | 2.68 m/s, 8° | 48 W/m² | - |
| 1777994164 | 12.22° C | 81% | 1009.4 hPa | 0 mm | 2.68 m/s, 355° | 56 W/m² | - |
| 1777993234 | 12.22° C | 80% | 1009.4 hPa | 0 mm | 3.58 m/s, 344° | 51 W/m² | - |
| 1777992366 | 12.22° C | 80% | 1009.6 hPa | 0 mm | 1.79 m/s, 351° | 64 W/m² | - |
| 1777991436 | 12.78° C | 80% | 1009.5 hPa | 0 mm | 2.24 m/s, 351° | 67 W/m² | - |
| 1777990570 | 13.33° C | 79% | 1009.6 hPa | 0 mm | 0.45 m/s, 2° | 68 W/m² | - |
* Rain latest hour (hover to see other rain measurements)
** Current wind speed in m/s (hover to see current wind gust speed)